Regional Weather Roundup
Issued by NWS

Home | Current Version | Previous Version | Graphics & Text | Print | Product List | Glossary On
Versions: 1 2 3 4 5 6 7 8 9 10 11 12 13 14 15 16 17 18 19 20 21 22 23 24 25 26 27 28 29 30 31 32 33 34 35 36 37 38 39 40 41 42 43 44 45 46 47 48 49 50
000
ASUS43 KLOT 271004
RWRIL

ILLINOIS REGIONAL WEATHER ROUNDUP
NATIONAL WEATHER SERVICE CHICAGO/ROMEOVILLE IL
500 AM CDT THU JUL 27 2017

NOTE: "FAIR" INDICATES FEW OR NO CLOUDS BELOW 12,000 FEET WITH NO
SIGNIFICANT WEATHER AND/OR OBSTRUCTIONS TO VISIBILITY.

* THESE STATIONS ARE NOT UNDER NWS QUALITY CONTROL. THEY ALSO MAY NOT
  REPORT WEATHER SUCH AS PRECIPITATION OR FOG.

ILZ001-002-007-009-015-016-024-271100-
NORTHWEST ILLINOIS

CITY           SKY/WX    TMP DP  RH WIND       PRES   REMARKS
MOLINE         CLOUDY    73  69  87 N3        29.92S
STERLING*      MOCLDY    70  70 100 N6        29.93S
SAVANNA*       CLOUDY    69  69  99 CALM      29.94R
$$

ILZ003-004-008-010-011-017-018-271100-
NORTH CENTRAL ILLINOIS

CITY           SKY/WX    TMP DP  RH WIND       PRES   REMARKS
ROCKFORD       CLOUDY    73  70  90 N7        29.95R
FREEPORT*      FOG       69  69 100 N3        29.96S VSB 3/4
ROCHELLE*      CLOUDY    70  70 100 CALM      29.94R FOG
DE KALB*       CLOUDY    70  70  98 CALM      29.95R FOG
PERU*          CLOUDY    71  69  96 CALM      29.93R
$$

ILZ005-006-012>014-019>023-271100-
NORTHEAST ILLINOIS

CITY           SKY/WX    TMP DP  RH WIND       PRES   REMARKS
CHICAGO-OHARE  MOCLDY    73  70  90 NW3       29.93R
CHICAGO-MIDWAY CLOUDY    74  73  97 NW3       29.93R FOG
AURORA         CLOUDY    71  71 100 NW3       29.94R
LANSING*       CLOUDY    72  71  95 CALM      29.93R FOG
JOLIET*        CLOUDY    73  73  97 CALM      29.93R
WAUKEGAN       CLEAR     70  70 100 N5        29.93R FOG
DUPAGE AIRPORT CLOUDY    71  70  96 N6        29.93R
WHEELING       MOCLDY    73  71  93 N5        29.94R
MORRIS*        CLOUDY    72  71  97 CALM      29.92R
ROMEOVILLE*    CLOUDY    72  69  91 CALM      29.93R
NORTHERLY ISL    N/A     74  71  91 CALM        N/A
$$

LMZ740>746-271100-
SOUTHERN LAKE MICHIGAN

STATION/POSITION SKY/WX   TEMP    WIND        PRES    VSBY  WAVE
                          AIR SEA DIR/SP/G                  HT/PER
                          (F)     (DEG/KT/KT) (MB)    (MI)  (FT/S)
SOUTHERN BUOY              71 71  350/  8/ 12 1013.1          0
WILMETTE HARBOR            72 72  360/ 10/ 12   N/A           1/ 2
HARRISON CRIB              74     360/  6/  7   N/A
BURNHAM HARBOR             74                   N/A
CALUMET HARBOR             73     280/  1/  3 1012.6R
BURNS HARBOR               72     190/  6/  8 1013.5R
MICHIGAN CITY              73     190/  6/  7   N/A
MICHIGAN CITY 6N           73 74  230/  8/ 10   N/A           0
ST. JOSEPH                 74 74  200/  4/  6 1012.7R         1
$$

ILZ025>027-034>036-040-047-049-050-058-095>099-271100-
WEST-CENTRAL ILLINOIS

CITY           SKY/WX    TMP DP  RH WIND       PRES   REMARKS
QUINCY         CLOUDY    75  73  93 SE8       29.93S
GALESBURG*     CLOUDY    71  71 100 CALM      29.94R
MACOMB*        CLOUDY    73  73  99 CALM      29.96R FOG
JACKSONVILLE*  CLOUDY    73  73  97 S5        29.94S
PITTSFIELD*    HVY RAIN  74  74  98 SE7       29.94F
$$

ILZ028>032-037-038-041>044-048-051>054-059>061-271100-
CENTRAL ILLINOIS

CITY           SKY/WX    TMP DP  RH WIND       PRES   REMARKS
PONTIAC        CLOUDY    72  72  99 CALM      29.93S
BLOOMINGTON    CLOUDY    71  71 100 S8        29.94S
DECATUR        CLOUDY    74  72  93 S13       29.94R
PEORIA         FOG       72  72 100 SW3       29.93R VSB 1/4
LACON*         CLOUDY    72  72 100 CALM      29.91S FOG
LINCOLN*       CLOUDY    74  74 100 CALM      29.93S
SPRINGFIELD    CLOUDY    75  75 100 S7        29.94S
TAYLORVILLE    RAIN      72  72 100 SE3       29.95S
$$

ILZ033-039-045-046-055>057-062-063-271100-
EAST-CENTRAL ILLINOIS

CITY           SKY/WX    TMP DP  RH WIND       PRES   REMARKS
CHAMPAIGN      CLOUDY    72  71  97 S7        29.94S
RANTOUL*       CLOUDY    73  73  98 SW3       29.93S
MATTOON        LGT RAIN  73  73 100 S7        29.94F FOG
PARIS*         CLOUDY    72  72  99 SW3       29.95F
$$

ILZ079-100>102-271100-
SOUTHWEST ILLINOIS

CITY           SKY/WX    TMP DP  RH WIND       PRES   REMARKS
ALTON          RAIN      73  73 100 CALM      29.95F
BELLEVILLE     RAIN      76  75  96 E5        29.96S FOG
CAHOKIA*       LGT RAIN  78  75  90 E5        29.93F HX  81
SPARTA*        LGT RAIN  76  75  96 N5        29.96R
$$

ILZ064>066-069>071-074>076-080>082-084>086-088>090-092>094-271100-
SOUTH-CENTRAL ILLINOIS

CITY           SKY/WX    TMP DP  RH WIND       PRES   REMARKS
CARBONDALE     CLOUDY    80  76  87 SW6       29.94S HX  86
CAIRO*         CLOUDY    78  75  90 SW6       29.95S HX  80
EFFINGHAM*     HVY RAIN  72  72 100 E3        29.97F
MARION         CLOUDY    81  79  94 SW6       29.95S HX  89
MT. VERNON     LGT RAIN  74  73  97 NE8       29.97R
CENTRALIA*     CLOUDY    74  74  99 NE6       29.96R
SALEM*         CLOUDY    75  73  94 CALM      29.98S
METROPOLIS*    PTCLDY    78  75  89 W3        29.96S HX  81
$$

ILZ067-068-072-073-078-083-087-091-271100-
SOUTHEAST ILLINOIS

CITY           SKY/WX    TMP DP  RH WIND       PRES   REMARKS
LAWRENCEVILLE  RAIN      73  32  22 S8        29.98R
FLORA*         HVY RAIN  74  73  96 NE3       29.97S
FAIRFIELD*     RAIN      73  73 100 N3        29.96R
HARRISBURG*    CLOUDY    78  75  88 SW3       29.95S HX  81
ROBINSON*      DRIZZLE   71  71  99 W6        29.97R
CARMI*         CLOUDY    74  73  98 CALM      29.95S
$$

ABBREVIATIONS USED IN REMARKS
   TC - TEMPERATURE IN CELSIUS
  WCI - WIND CHILL INDEX
   HX - HEAT INDEX
  VSB - VISIBILITY
$$





USA.gov is the U.S. government's official web portal to all federal, state and local government web resources and services.